Location: Rounton
(54.4000°N, 1.3500°W)
Time: 08:51:46
(UTC+00:00)

Vanguard 2 Rocket - All Passes

Search period start: 25 February 2024 00:00
Search period end: 06 March 2024 00:00
Orbit: 554 x 3310 km, 32.9° (Epoch: 24 February)

Date Brightness Start Highest point End Pass type
(mag) Time Alt. Az. Time Alt. Az. Time Alt. Az.
25 Feb - 13:45:19 10° S 13:51:13 17° SE 13:58:55 10° ESE daylight
25 Feb - 15:53:58 10° SW 16:03:27 29° SSE 16:17:01 10° ESE daylight
25 Feb - 18:05:50 10° WSW 18:17:13 29° SSW 18:32:05 10° SE visible
25 Feb - 20:21:15 10° WSW 20:31:11 18° SSW 20:42:18 10° S visible
26 Feb - 12:48:55 10° SE 12:49:58 10° SE 12:51:05 10° SE daylight
26 Feb - 14:53:25 10° SSW 15:01:22 25° SSE 15:12:42 10° ESE daylight
26 Feb - 17:04:13 10° WSW 17:14:32 29° S 17:28:50 10° SE daylight
26 Feb - 19:17:54 10° WSW 19:28:30 22° SSW 19:41:16 10° SSE visible
27 Feb - 13:53:30 10° SSW 13:59:41 19° SSE 14:08:02 10° ESE daylight
27 Feb - 16:03:04 10° SW 16:12:07 28° S 16:25:07 10° SE daylight
27 Feb - 18:15:29 10° WSW 18:25:48 25° SSW 18:39:09 10° SSE visible
27 Feb - 20:33:22 10° WSW 20:39:27 13° SW 20:46:02 10° SSW visible
28 Feb - 12:54:51 10° SSE 12:58:21 13° SE 13:02:31 10° ESE daylight
28 Feb - 15:02:22 10° SW 15:10:01 25° SSE 15:21:04 10° ESE daylight
28 Feb - 17:13:42 10° WSW 17:23:13 26° S 17:36:17 10° SE daylight
28 Feb - 19:28:35 10° WSW 19:36:56 17° SSW 19:46:44 10° S visible
29 Feb - 14:02:10 10° SSW 14:08:17 20° SSE 14:16:47 10° ESE daylight
29 Feb - 16:12:24 10° SW 16:20:52 26° S 16:32:54 10° SE daylight
29 Feb - 18:25:36 10° WSW 18:34:24 20° SSW 18:45:28 10° SSE visible
01 Mar - 13:02:47 10° S 13:06:53 15° SSE 13:12:04 10° ESE daylight
01 Mar - 15:11:34 10° SW 15:18:47 24° S 15:29:10 10° SE daylight
01 Mar - 17:23:30 10° WSW 17:31:57 22° SSW 17:43:12 10° SSE daylight
01 Mar - 19:41:51 10° SW 19:45:25 11° SW 19:49:14 10° SSW visible
02 Mar - 14:11:09 10° SSW 14:17:01 20° SSE 14:25:13 10° SE daylight
02 Mar - 16:22:01 10° SW 16:29:40 22° S 16:40:16 10° SE daylight
02 Mar - 18:36:44 10° SW 18:43:02 14° SSW 18:50:28 10° S visible
03 Mar - 13:11:21 10° S 13:15:35 16° SSE 13:21:01 10° SE daylight
03 Mar - 15:21:00 10° SW 15:27:38 22° S 15:36:56 10° SE daylight
03 Mar - 17:33:56 10° SW 17:40:43 17° SSW 17:49:15 10° SSE daylight
04 Mar - 12:14:14 10° SSE 12:14:25 10° SSE 12:14:36 10° SSE daylight
04 Mar - 14:20:26 10° SSW 14:25:52 19° S 14:33:22 10° SE daylight
04 Mar - 16:32:04 10° SW 16:38:32 18° SSW 16:47:01 10° SSE daylight
05 Mar - 13:20:22 10° SSW 13:24:24 15° SSE 13:29:35 10° SE daylight
05 Mar - 15:30:49 10° SW 15:36:33 18° S 15:44:14 10° SSE daylight
05 Mar - 17:46:14 10° SW 17:49:30 11° SSW 17:53:09 10° S daylight
